Regional Weather Roundup
Issued by NWS State College, PA

Home | Current Version | Previous Version | Text Only | Print | Product List | Glossary On
Versions: 1 2 3 4 5 6 7 8 9 10 11 12 13 14 15 16 17 18 19 20 21 22 23 24 25 26 27 28 29 30 31 32 33 34 35 36 37 38 39 40 41 42 43 44 45 46 47 48 49 50
000
ASUS41 KCTP 301210
RWRCTP

REGIONAL WEATHER ROUNDUP
NATIONAL WEATHER SERVICE STATE COLLEGE PA
700 AM EST FRI JAN 30 2015

Note: "fair" indicates few or no clouds below 12,000 feet with no
significant weather and/or obstructions to visibility.

* = STATION THAT DOES NOT REPORT PRECIPITATION /E.G. RAIN...SNOW...ETC/
    THUNDER OR FOG.

PAZ002>004-007>009-013>016-020>023-029>032-301300-
WESTERN PENNSYLVANIA

CITY           SKY/WX    TMP DP  RH WIND       PRES   REMARKS
ERIE           FLURRIES  23  19  85 W8        30.11R WCI  14
MEADVILLE      SNOW      20  16  84 NW14G23   30.07R VSB 1/2 WCI   7
FRANKLIN*      CLOUDY    19  14  79 NW12G18   30.06R WCI   7
NEW CASTLE     LGT SNOW  21  18  86 NW14G20   30.14R FOG     WCI   8
BEAVER COUNTY  LGT SNOW  23  19  86 NW9G18    30.10  WCI  13
BUTLER*        CLOUDY    25  18  74 W9G22     30.09R
PITTSBURGH INT LGT SNOW  25  21  85 NW16      30.08R VSB 1   WCI  12
PITTSBURGH     FLURRIES  26  17  68 NW17G33   30.05R WCI  13
INDIANA*       CLOUDY    28  23  80 NW15G24   30.03R HAZE
LATROBE        LGT SNOW  28  25  86 NW13      30.06R
WASHINGTON CO* CLOUDY    27  21  80 NW9G16    30.10R
$$

PAZ004>006-010>012-017>019-024>028-033>037-041-042-045-046-049>053-301300-
CENTRAL PENNSYLVANIA

CITY           SKY/WX    TMP DP  RH WIND       PRES   REMARKS
BRADFORD       LGT SNOW  23  18  81 W13G22    29.91R WCI  11
DUBOIS         CLOUDY    24  20  84 NW16G26   29.94R FOG     WCI  11
CLEARFIELD     FLURRIES  27  22  81 W10       29.94R
JOHNSTOWN      LGT SNOW  24  19  81 NW26G35   29.91R WCI   8
ALTOONA        CLOUDY    30  23  75 NW15G24   29.93R
STATE COLLEGE  CLOUDY    30  25  80 NW14      29.94R
WILLIAMSPORT   CLOUDY    30  25  81 W8        29.90R
SELINSGROVE    CLOUDY    29  27  92 CALM      29.93R FOG
FT INDIANTOWN  LGT SNOW  32  28  86 W10G18    29.91R FOG
CAPITAL CITY   CLOUDY    32  26  78 W9        29.94R
HARRISBURG     FLURRIES  32  27  81 MISG      29.93R
YORK           CLOUDY    34  24  67 W10       29.93R
$$

PAZ038>040-043-044-047-048-054-055-060>062-067>071-301300-
EASTERN PENNSYLVANIA

CITY           SKY/WX    TMP DP  RH WIND       PRES   REMARKS
SCRANTON       LGT SNOW  27  24  89 S6        29.84S VSB 1
MOUNT POCONO   LGT SNOW  25  22  88 NW13      29.75S FOG     WCI  14
ALLENTOWN      CLOUDY    28  24  85 W8        29.87S
QUAKERTOWN*    CLOUDY    30  25  80 W7        29.87R
READING        CLOUDY    29  24  82 W3        29.90R
LANCASTER      LGT SNOW  30  26  85 W12       29.91R VSB 1
COATESVILLE    CLOUDY    30  28  93 NW15      29.89R
POTTSTOWN      CLOUDY    30  25  81 W7        29.90R
BLUE BELL      CLOUDY    32  28  86 W7        29.87R
DOYLESTOWN     CLOUDY    29  25  85 W8        29.86R
WILLOW GROVE   NOT AVBL
NORTH PHILA    CLOUDY    34  24  67 NW12G21   29.89R
PHILADELPHIA   FLURRIES  35  25  66 NW13      29.90R
$$



USA.gov is the U.S. government's official web portal to all federal, state and local government web resources and services.